CZ-6A DEB, 61090

Orbit data source: Space-Track

CZ-6A DEB, 61090 is space debris in LEO originally from a launch on Tue, 06 Aug 2024 UTC launched from the Taiyaun Space Center, China (TSC). Debris objects in space refer to the collection of defunct objects orbiting the Earth. Examples of debris include non-operational satellites, rocket bodies, and fragments generated from explosions, collisions, or faulty payload assembly.

Loading next visibility...
Identifier
61090, 2024-140NG
Orbit
LEO
Country
Flag of CNCN / PRC
Related business
Manufacturer
SAST
Mission
Spacecraft
Bus & Motor
Unknown
Mass
Unknown
Launch date (UTC)
2024-08-06 (2 years ago)
Launch vehicle
Unknown
Launch site
Taiyaun Space Center, China (TSC)
Object type
Payload
Rocket body
Debris
Shape & HBR
Unknown shape, 0.1 m
Radar Cross Section
Medium (>0.1 m² and <1 m²)

Expand to show TLE details & history
Last TLE update: 19 hours ago

TLE from 19 hours ago
0 CZ-6A DEB
1 61090U 24140NG  26171.18538121  .00004427  00000-0  68012-3 0  9990
2 61090  88.7550 247.8851 0124345 236.3699 122.5605 14.68253042 96723
Epoch: 2026-06-20T04:26Z
TLE epoch observation values (Epoch: 2026-06-20T04:26:56.936Z)
Latitude
-0.00005°
Longitude
-87.25577°
Altitude
717.693 km
Speed
7.471 km/s
True Right ascension
16h 31m 32s
True Declination
0° 00' 00"
Sunlit
Object was in full shadow at epoch
Visualization orbit readout
Latitude
Unknown
Longitude
Unknown
Altitude
Unknown
Speed
Unknown
Apparent Right ascension
Unknown
Apparent Declination
Unknown
Sunlit
N/A
Visualization observer readout
Local Sidereal Time
10:19:01
Azimuth
Unknown
Elevation
Unknown
Doppler factor
Unknown
Orbital elements
Apogee altitude
751.093 km
Perigee altitude
575.974 km
Semi-major axis
7,041.671 km
Eccentricity
0.01243
Inclination
88.755°
RAAN
247.8851°
Arg. of periapsis
236.3699°
True anomaly
123.75138°
Mean anomaly
122.5605°
Eccentric anomaly
123.15694°
Mean motion
3.67307 °/min
Orbital period
98.01 mins
BSTAR
0.00068012
Loading maneuver chart data...
Computing Atmospheric mass density...
Loading historical data...
Loading historical data...
Loading historical data...
Loading historical data...
Loading historical data...
Loading historical data...
Loading historical data...

Documentation

Showing up to 5 results
|